TimeEST,TemperatureF,Dew PointF,Humidity,Sea Level PressureIn,VisibilityMPH,Wind Direction,Wind SpeedMPH,Gust SpeedMPH,PrecipitationIn,Events,Conditions,WindDirDegrees,DateUTC
12:53 AM,66.0,52.0,60,30.27,10.0,ENE,15.0,21.9,N/A,,Scattered Clouds,70,2012-12-31 05:53:00
1:53 AM,66.9,52.0,59,30.27,10.0,East,13.8,-,N/A,,Scattered Clouds,80,2012-12-31 06:53:00
2:53 AM,66.9,53.1,61,30.27,10.0,East,12.7,23.0,N/A,,Mostly Cloudy,80,2012-12-31 07:53:00
3:53 AM,66.9,53.1,61,30.27,10.0,ENE,12.7,-,N/A,,Mostly Cloudy,70,2012-12-31 08:53:00
4:53 AM,68.0,54.0,61,30.25,10.0,ENE,12.7,-,N/A,,Overcast,60,2012-12-31 09:53:00
5:53 AM,68.0,55.0,63,30.25,10.0,East,13.8,-,N/A,,Overcast,80,2012-12-31 10:53:00
6:53 AM,68.0,55.0,63,30.26,10.0,East,11.5,-,N/A,,Mostly Cloudy,80,2012-12-31 11:53:00
7:53 AM,69.1,54.0,58,30.27,10.0,East,15.0,-,N/A,,Scattered Clouds,80,2012-12-31 12:53:00
8:53 AM,71.1,55.0,57,30.30,10.0,East,17.3,-,N/A,,Scattered Clouds,90,2012-12-31 13:53:00
9:53 AM,72.0,55.0,55,30.31,10.0,East,18.4,-,N/A,,Scattered Clouds,80,2012-12-31 14:53:00
10:53 AM,75.0,55.9,51,30.31,10.0,East,18.4,23.0,N/A,,Scattered Clouds,80,2012-12-31 15:53:00
11:53 AM,73.9,55.9,53,30.30,10.0,East,17.3,-,N/A,,Scattered Clouds,90,2012-12-31 16:53:00
12:53 PM,75.9,55.0,48,30.27,10.0,East,17.3,21.9,N/A,,Scattered Clouds,90,2012-12-31 17:53:00
1:53 PM,75.0,55.9,51,30.25,10.0,East,16.1,-,N/A,,Mostly Cloudy,100,2012-12-31 18:53:00
2:53 PM,73.9,55.0,52,30.23,10.0,East,15.0,-,N/A,,Scattered Clouds,100,2012-12-31 19:53:00
3:53 PM,75.0,57.0,53,30.22,10.0,East,13.8,-,N/A,,Scattered Clouds,90,2012-12-31 20:53:00
4:53 PM,73.0,57.9,59,30.22,10.0,East,17.3,-,N/A,,Scattered Clouds,100,2012-12-31 21:53:00
5:53 PM,72.0,55.0,55,30.21,10.0,ESE,12.7,-,N/A,,Partly Cloudy,110,2012-12-31 22:53:00
6:53 PM,72.0,55.9,57,30.21,10.0,ESE,9.2,-,N/A,,Mostly Cloudy,110,2012-12-31 23:53:00
7:53 PM,71.6,57.2,60,30.20,10.0,ESE,11.5,-,N/A,,Mostly Cloudy,110,2013-01-01 00:53:00
8:53 PM,72.0,57.0,59,30.22,10.0,ESE,10.4,-,N/A,,Overcast,110,2013-01-01 01:53:00
9:53 PM,71.6,55.4,57,30.21,10.0,ESE,12.7,-,N/A,,Mostly Cloudy,120,2013-01-01 02:53:00
10:53 PM,71.6,57.2,60,30.21,10.0,SE,9.2,-,N/A,,Mostly Cloudy,130,2013-01-01 03:53:00
11:53 PM,72.0,57.0,59,30.21,10.0,ESE,10.4,-,N/A,,Mostly Cloudy,110,2013-01-01 04:53:00